Location: El Centro
(32.7920°N, 115.5620°W)
Time: 10:31:24
(UTC-07:00)

Amateur Radio Satellites - All Passes

Search period start: 25 May 2015 10:01
Search period end: 26 May 2015 10:01
Location: El Centro, 32.7920°N, 115.5620°W

Satellite Date Start Highest point End Downlink Frequencies (MHz)
Time Altitude Azimuth
UKube-1 25 May 10:02:56 10:03:50 11° 91° (E) 10:05:02 .
HUMSAT D 25 May 10:06:05 10:07:32 12° 91° (E) 10:09:13 437.325/437.525
CANX-2 25 May 10:07:13 10:10:42 25° 288° (WNW) 10:14:06 2200.000
DX 1 25 May 10:07:40 10:09:55 14° 92° (E) 10:12:23 434.975-435.025
DELFI C3 25 May 10:10:35 10:14:28 47° 99° (E) 10:18:20 145.870
TIGRISAT 25 May 10:10:40 10:15:04 41° 74° (ENE) 10:19:29 435.000
CUTE 1.7 + AOD 2 25 May 10:11:03 10:14:33 25° 288° (WNW) 10:17:58 437.475
Oscar 11 25 May 10:11:06 10:15:24 71° 101° (E) 10:19:40 145.826/435.025
POPSAT HIP 1 25 May 10:11:57 10:14:43 18° 70° (ENE) 10:17:39 437.405
DUCHIFAT 1 25 May 10:15:18 10:18:12 19° 71° (ENE) 10:21:15 145.980
CINEMA 3 25 May 10:16:55 10:21:31 52° 285° (WNW) 10:25:53 145.822/145.860
Cosmos 2504 25 May 10:19:09 10:27:42 82° 94° (E) 10:35:42 435.465 / 435.565
DOVE 4 25 May 10:25:57 10:29:54 22° 291° (WNW) 10:33:34 437.250
UNISAT 6 25 May 10:29:57 10:34:38 73° 77° (ENE) 10:39:19 437.425
PCSat 25 May 10:29:58 10:35:10 46° 60° (ENE) 10:40:22 145.827
UWE-3 25 May 10:35:39 10:40:03 84° 283° (WNW) 10:44:17 435.000/436.395/437.385
SEEDS 25 May 10:37:27 10:40:01 16° 290° (WNW) 10:42:25 437.485
AISAT 25 May 10:44:39 10:47:50 20° 94° (E) 10:51:10 437.250
PHONESAT 2.4 25 May 10:45:54 10:47:31 13° 219° (SW) 10:49:03 2401.200-2431.200
BUGSAT 1 25 May 10:46:06 10:49:36 28° 73° (ENE) 10:53:14 437.445
FUNcube-1 25 May 10:50:44 10:55:03 73° 283° (WNW) 10:59:13 145.935
COMPASS 1 25 May 10:54:20 10:56:11 12° 291° (WNW) 10:57:50 437.405
QB50P1 25 May 10:54:39 10:58:50 58° 76° (ENE) 11:03:04 145.935-145.965
POLYITAN 1 25 May 10:55:34 10:59:48 61° 76° (ENE) 11:04:04 437.675
JUGNU 25 May 10:57:30 11:01:19 18° 169° (S) 11:05:10 437.505
RS-15 25 May 11:02:40 11:12:19 33° 315° (NW) 11:21:57 29.354- 29.394
ANTELSAT 25 May 11:13:41 11:18:01 35° 263° (W) 11:22:17 437.575/2403.000
CUBEBUG 2 25 May 11:21:52 11:25:06 19° 290° (WNW) 11:28:08 437.445
50 SAT 25 May 11:25:53 11:29:45 70° 101° (E) 11:33:34 437.505
NANOSAT C BR1 25 May 11:26:43 11:30:53 55° 260° (W) 11:35:06 145.865
ZACube-1 25 May 11:31:13 11:34:40 23° 289° (WNW) 11:37:59 437.345
HO-68 25 May 11:32:38 11:35:35 12° 301° (WNW) 11:38:02 435.675
QB50P2 25 May 11:33:30 11:37:35 43° 261° (W) 11:41:41 145.880/145.840
CUSAT 1 25 May 11:34:08 11:36:18 12° 80° (E) 11:39:12 437.405
UKube-1 25 May 11:36:05 11:40:19 49° 286° (WNW) 11:44:30 .
HUMSAT D 25 May 11:39:38 11:43:32 40° 286° (WNW) 11:47:22 437.325/437.525
DX 1 25 May 11:42:16 11:46:22 39° 287° (WNW) 11:50:26 434.975-435.025
ESTCUBE 1 25 May 11:44:47 11:49:14 56° 100° (E) 11:53:42 437.505/2401.250
POPSAT HIP 1 25 May 11:46:33 11:50:23 31° 263° (W) 11:54:11 437.405
DELFI C3 25 May 11:48:38 11:49:12 10° 291° (WNW) 11:49:31 145.870
VELOX 1 25 May 11:49:04 11:53:33 72° 284° (WNW) 11:58:00 145.980
TIGRISAT 25 May 11:49:07 11:52:00 15° 268° (W) 11:54:40 435.000
DUCHIFAT 1 25 May 11:50:06 11:53:50 29° 264° (W) 11:57:32 145.980
CUBEBUG 1 25 May 11:52:32 11:56:56 59° 100° (E) 12:01:19 437.445
Oscar 19 25 May 12:02:16 12:02:53 10° 65° (ENE) 12:03:52 437.125/150
SRMSAT 25 May 12:11:41 12:14:57 15° 167° (SSE) 12:18:18 437.500
PCSat 25 May 12:14:29 12:18:16 19° 253° (WSW) 12:21:50 145.827
Cosmos 2504 25 May 12:17:00 12:22:01 16° 292° (WNW) 12:26:20 435.465 / 435.565
AISAT 25 May 12:20:32 12:24:28 30° 288° (WNW) 12:28:19 437.250
BUGSAT 1 25 May 12:22:17 12:25:08 17° 267° (W) 12:27:52 437.445
GONETS M04 25 May 12:23:39 12:30:48 30° 87° (E) 12:38:14
DANDE 25 May 12:29:21 12:34:47 29° 86° (E) 12:41:25 436.750
SO-50 25 May 12:37:35 12:42:24 51° 58° (ENE) 12:47:09 436.795
SPROUT 25 May 12:38:20 12:42:34 51° 99° (E) 12:46:46 437.525
JUGNU 25 May 12:45:13 12:49:44 23° 179° (S) 12:54:14 437.505
TISAT 1 25 May 13:08:29 13:12:46 86° 102° (ESE) 13:17:01 437.305
CUSAT 1 25 May 13:10:52 13:17:39 82° 96° (E) 13:25:50 437.405
ITUPSAT 1 25 May 13:12:50 13:14:18 12° 91° (E) 13:16:07 437.325
BEESAT 25 May 13:20:39 13:23:16 15° 92° (E) 13:26:08 436.000
ESTCUBE 1 25 May 13:24:06 13:25:41 11° 292° (WNW) 13:26:59 437.505/2401.250
RS-15 25 May 13:28:04 13:29:58 10° 348° (NNW) 13:31:31 29.354- 29.394
SWISSCUBE 25 May 13:28:09 13:31:38 21° 94° (E) 13:35:16 437.505
CUBEBUG 1 25 May 13:32:00 13:32:50 10° 293° (WNW) 13:33:22 437.445
Oscar 19 25 May 13:36:28 13:41:39 79° 257° (WSW) 13:46:53 437.125/150
ITAMSAT 1 25 May 13:47:22 13:51:59 35° 72° (ENE) 13:56:41 435.822/435.867
SRMSAT 25 May 13:59:03 14:03:31 22° 176° (S) 14:07:59 437.500
DANDE 25 May 14:11:13 14:17:36 47° 286° (WNW) 14:25:21 436.750
Gurwin Techsat 1B 25 May 14:14:38 14:19:51 63° 75° (ENE) 14:25:07 435.225
AO-7 25 May 14:16:29 14:21:32 19° 59° (ENE) 14:26:59 29.400- 29.500
SPROUT 25 May 14:16:46 14:18:15 11° 292° (WNW) 14:19:28 437.525
JAS-2 25 May 14:18:18 14:21:24 14° 67° (ENE) 14:24:44 435.910
GONETS M04 25 May 14:18:49 14:27:19 50° 282° (WNW) 14:35:48
SO-50 25 May 14:19:43 14:22:34 15° 251° (WSW) 14:25:09 436.795
JUGNU 25 May 14:34:04 14:38:09 19° 189° (S) 14:42:11 437.505
ITUPSAT 1 25 May 14:47:55 14:52:36 56° 285° (WNW) 14:57:17 437.325
Cosmos 2499 25 May 14:53:32 15:01:33 54° 92° (E) 15:09:03 435.465 / 435.565
CUSAT 1 25 May 14:56:45 15:01:37 18° 297° (WNW) 15:06:26 437.405
BEESAT 25 May 14:56:50 15:01:21 43° 287° (WNW) 15:05:51 436.000
STARS 25 May 14:59:55 15:02:51 18° 94° (E) 15:05:56 437.465
SWISSCUBE 25 May 15:05:18 15:09:33 32° 288° (WNW) 15:13:45 437.505
HORYU 2 25 May 15:13:12 15:17:18 37° 73° (ENE) 15:21:28 437.375
KKS-1 25 May 15:26:51 15:31:18 66° 101° (E) 15:35:44 437.445
ITAMSAT 1 25 May 15:27:35 15:31:35 22° 266° (W) 15:35:27 435.822/435.867
O/OREOS (USA 219) 25 May 15:38:53 15:43:23 65° 107° (ESE) 15:47:51 437.305
RS-15 25 May 15:44:13 15:49:44 15° 25° (NNE) 15:55:56 29.354- 29.394
SRMSAT 25 May 15:47:45 15:52:06 21° 186° (S) 15:56:26 437.500
Gurwin Techsat 1B 25 May 15:58:03 16:00:21 12° 270° (W) 16:02:16 435.225
JAS-2 25 May 15:59:04 16:06:08 79° 257° (WSW) 16:12:22 435.910
AO-7 25 May 16:05:11 16:13:29 84° 254° (WSW) 16:21:51 29.400- 29.500
JUGNU 25 May 16:25:44 16:26:32 10° 197° (SSW) 16:27:10 437.505
STARS 25 May 16:35:27 16:39:23 31° 288° (WNW) 16:43:14 437.465
MOZHAYETS 4 25 May 16:44:36 16:48:42 33° 97° (E) 16:52:52
Cosmos 2499 25 May 16:48:25 16:55:02 25° 287° (WNW) 17:01:01 435.465 / 435.565
HORYU 2 25 May 16:51:20 16:54:07 16° 267° (W) 16:56:43 437.375
BEESAT 3 25 May 16:56:46 16:57:49 11° 109° (ESE) 16:59:07 437.485
O/OREOS (USA 219) 25 May 17:22:52 17:23:19 10° 304° (NW) 17:23:29 437.305
CUTE-I 25 May 17:28:13 17:32:31 27° 70° (ENE) 17:36:57 437.470
SRMSAT 25 May 17:37:58 17:40:39 13° 195° (SSW) 17:43:14 437.500
BEESAT 2 25 May 17:40:45 17:44:20 31° 113° (ESE) 17:48:02 435.950
Cubesat XI-IV 25 May 17:47:38 17:52:34 42° 73° (ENE) 17:57:35 437.490
RS-15 25 May 17:54:51 18:06:03 51° 53° (NE) 18:17:49 29.354- 29.394
AO-7 25 May 18:04:06 18:07:33 12° 271° (W) 18:10:13 29.400- 29.500
Cosmos 2491 25 May 18:09:56 18:15:18 19° 83° (E) 18:21:15 435.465 / 435.565
YUBILEINY 25 May 18:09:56 18:17:38 36° 74° (ENE) 18:25:29 435.215
CUBESAT XI-V 25 May 18:19:13 18:23:09 27° 95° (E) 18:27:10 437.345
MOZHAYETS 4 25 May 18:22:31 18:25:43 19° 290° (WNW) 18:28:47
BEESAT 3 25 May 18:31:30 18:35:26 47° 301° (WNW) 18:39:24 437.485
PRISM 25 May 18:44:57 18:47:56 20° 95° (E) 18:51:03 437.425
AIST 2 25 May 18:58:29 19:02:41 68° 116° (ESE) 19:06:57 435.215
STRAND 1 25 May 19:01:51 19:06:20 30° 96° (E) 19:10:53 437.568
CUTE-I 25 May 19:07:50 19:12:30 31° 263° (W) 19:17:08 437.470
M-CUBED/EXP-1 PRIME 25 May 19:10:32 19:11:08 10° 98° (E) 19:11:56 437.505
AUBIESAT-1 25 May 19:19:25 19:20:44 12° 98° (E) 19:22:13 437.475
BEESAT 2 25 May 19:19:31 19:22:30 19° 308° (NW) 19:25:25 435.950
Cubesat XI-IV 25 May 19:29:05 19:32:53 19° 267° (W) 19:36:30 437.490
DOVE 4 25 May 19:48:57 19:52:44 22° 70° (ENE) 19:56:48 437.250
SEEDS 25 May 19:49:58 19:52:07 14° 70° (ENE) 19:54:26 437.485
CUBESAT XI-V 25 May 19:56:42 20:00:30 24° 289° (WNW) 20:04:12 437.345
Cosmos 2491 25 May 20:02:39 20:11:25 72° 278° (W) 20:20:16 435.465 / 435.565
COMPASS 1 25 May 20:04:57 20:07:35 17° 71° (ENE) 20:10:21 437.405
HO-68 25 May 20:05:02 20:11:49 49° 70° (ENE) 20:18:42 435.675
YUBILEINY 25 May 20:06:32 20:14:32 41° 271° (W) 20:22:23 435.215
RS-15 25 May 20:07:34 20:18:28 43° 251° (WSW) 20:29:27 29.354- 29.394
BRITE-PL 25 May 20:08:08 20:13:04 87° 73° (ENE) 20:18:26 437.365/2234.400
GOMX 1 25 May 20:17:46 20:22:45 69° 75° (ENE) 20:28:03 467.674
AAUSAT CUBESAT 2 25 May 20:17:53 20:20:54 20° 72° (ENE) 20:24:02 437.432
Cosmos 2504 25 May 20:18:59 20:23:41 19° 70° (ENE) 20:28:44 435.465 / 435.565
PRISM 25 May 20:19:55 20:23:23 25° 288° (WNW) 20:26:47 437.425
CUBEBUG 2 25 May 20:39:15 20:42:11 17° 70° (ENE) 20:45:20 437.445
AIST 2 25 May 20:40:31 20:41:47 11° 313° (NW) 20:42:50 435.215
STRAND 1 25 May 20:41:12 20:45:25 25° 290° (WNW) 20:49:32 437.568
M-CUBED/EXP-1 PRIME 25 May 20:43:18 20:46:08 27° 291° (WNW) 20:48:57 437.505
ZACube-1 25 May 20:48:11 20:49:57 12° 68° (ENE) 20:51:59 437.345
AUBIESAT-1 25 May 20:52:54 20:55:37 23° 291° (WNW) 20:58:18 437.475
CANX-2 25 May 20:54:48 20:59:03 63° 259° (W) 21:03:17 2200.000
DELFI C3 25 May 20:54:50 20:57:19 17° 71° (ENE) 20:59:57 145.870
CUTE 1.7 + AOD 2 25 May 20:58:34 21:02:49 64° 260° (W) 21:07:02 437.475
Oscar 11 25 May 21:01:45 21:05:32 30° 73° (ENE) 21:09:22 145.826/435.025
AIST 1 25 May 21:12:19 21:16:25 46° 279° (W) 21:20:32
CINEMA 3 25 May 21:13:03 21:17:59 83° 76° (ENE) 21:23:03 145.822/145.860
SEEDS 25 May 21:23:40 21:27:37 38° 262° (W) 21:31:33 437.485
DOVE 4 25 May 21:25:39 21:30:15 35° 264° (W) 21:35:01 437.250
UWE-3 25 May 21:27:48 21:32:16 46° 75° (ENE) 21:36:46 435.000/436.395/437.385
COMPASS 1 25 May 21:39:19 21:43:03 30° 263° (W) 21:46:45 437.405
AISAT 25 May 21:40:34 21:41:28 11° 67° (ENE) 21:42:40 437.250
FUNcube-1 25 May 21:41:30 21:45:55 50° 75° (ENE) 21:50:23 145.935
AAUSAT CUBESAT 2 25 May 21:52:54 21:56:24 25° 265° (W) 21:59:48 437.432
HO-68 25 May 21:53:53 21:59:48 26° 265° (W) 22:05:32 435.675
GOMX 1 25 May 22:00:15 22:01:33 11° 273° (W) 22:02:27 467.674
50 SAT 25 May 22:06:49 22:09:51 22° 72° (ENE) 22:12:58 437.505
Cosmos 2491 25 May 22:08:13 22:10:14 10° 299° (WNW) 22:11:19 435.465 / 435.565
TIGRISAT 25 May 22:09:35 22:10:38 11° 90° (E) 22:12:00 435.000
Cosmos 2504 25 May 22:10:36 22:17:39 59° 267° (W) 22:24:42 435.465 / 435.565
CUBEBUG 2 25 May 22:14:05 22:18:35 41° 262° (W) 22:23:05 437.445
ZACube-1 25 May 22:21:24 22:25:54 53° 260° (W) 22:30:25 437.345
UKube-1 25 May 22:26:10 22:30:28 76° 76° (ENE) 22:34:48 .
HUMSAT D 25 May 22:26:15 22:30:34 76° 77° (ENE) 22:34:54 437.325/437.525
UNISAT 6 25 May 22:27:37 22:30:46 20° 94° (E) 22:34:01 437.425
DELFI C3 25 May 22:28:42 22:32:14 28° 264° (W) 22:35:43 145.870
DX 1 25 May 22:32:57 22:37:18 82° 258° (WSW) 22:41:40 434.975-435.025
ISS 25 May 22:34:17 22:36:51 22° 130° (SE) 22:39:29 145.825
Oscar 11 25 May 22:38:46 22:41:48 18° 267° (W) 22:44:38 145.826/435.025
ESTCUBE 1 25 May 22:40:27 22:44:18 30° 72° (ENE) 22:48:13 437.505/2401.250
VELOX 1 25 May 22:42:07 22:46:26 56° 75° (ENE) 22:50:48 145.980
CUBEBUG 1 25 May 22:44:45 22:48:25 28° 72° (ENE) 22:52:10 437.445
QB50P1 25 May 22:45:57 22:47:59 14° 92° (E) 22:50:15 145.935-145.965
POLYITAN 1 25 May 22:47:05 22:49:18 14° 92° (E) 22:51:43 437.675
UWE-3 25 May 23:06:32 23:09:04 14° 269° (W) 23:11:20 435.000/436.395/437.385
ANTELSAT 25 May 23:09:59 23:14:20 69° 100° (E) 23:18:35 437.575/2403.000
AISAT 25 May 23:13:15 23:17:36 57° 260° (W) 23:22:01 437.250
NANOSAT C BR1 25 May 23:16:18 23:20:08 32° 97° (E) 23:23:57 145.865
DANDE 25 May 23:17:32 23:22:32 19° 63° (ENE) 23:27:12 436.750
FUNcube-1 25 May 23:20:36 23:22:34 12° 270° (W) 23:24:15 145.935
QB50P2 25 May 23:23:12 23:27:15 41° 98° (E) 23:31:17 145.880/145.840
SPROUT 25 May 23:28:46 23:32:06 23° 71° (ENE) 23:35:33 437.525
PCSat 25 May 23:29:04 23:29:20 10° 104° (ESE) 23:30:02 145.827
POPSAT HIP 1 25 May 23:35:40 23:39:53 57° 100° (E) 23:44:04 437.405
DUCHIFAT 1 25 May 23:38:37 23:42:51 61° 100° (E) 23:47:03 145.980
50 SAT 25 May 23:41:20 23:44:28 21° 265° (W) 23:47:32 437.505
TIGRISAT 25 May 23:43:33 23:47:46 47° 285° (WNW) 23:51:51 435.000
TISAT 1 25 May 23:56:22 00:00:12 34° 73° (ENE) 00:04:05 437.305
CUSAT 1 25 May 23:56:25 00:03:13 49° 75° (ENE) 00:08:31 437.405
UNISAT 6 26 May 00:03:53 00:07:35 26° 288° (WNW) 00:11:08 437.425
BUGSAT 1 26 May 00:07:16 00:11:34 87° 284° (WNW) 00:15:48 437.445
ISS 26 May 00:10:27 00:13:12 25° 323° (NW) 00:15:57 145.825
ESTCUBE 1 26 May 00:17:55 00:21:13 19° 266° (W) 00:24:23 437.505/2401.250
QB50P1 26 May 00:20:04 00:24:04 38° 286° (WNW) 00:27:59 145.935-145.965
POLYITAN 1 26 May 00:21:26 00:25:23 36° 286° (WNW) 00:29:16 437.675
CUBEBUG 1 26 May 00:21:34 00:24:47 20° 266° (W) 00:27:54 437.445
BEESAT 26 May 00:24:43 00:25:54 11° 67° (ENE) 00:27:25 436.000
SWISSCUBE 26 May 00:31:34 00:34:08 15° 68° (ENE) 00:36:54 437.505
GONETS M04 26 May 00:34:15 00:43:01 69° 82° (E) 00:51:41
NANOSAT C BR1 26 May 00:52:55 00:55:44 17° 290° (WNW) 00:58:22 145.865
Cosmos 2499 26 May 00:54:52 00:55:17 10° 65° (ENE) 00:56:20 435.465 / 435.565
DANDE 26 May 00:59:12 01:06:49 65° 266° (W) 01:12:40 436.750
QB50P2 26 May 01:00:37 01:02:49 13° 291° (WNW) 01:04:48 145.880/145.840
SPROUT 26 May 01:04:34 01:08:06 24° 265° (W) 01:11:34 437.525
PCSat 26 May 01:06:48 01:12:12 78° 297° (WNW) 01:17:39 145.827
TISAT 1 26 May 01:33:35 01:36:07 15° 267° (W) 01:38:29 437.305
VERMONT LUNAR 26 May 01:35:34 01:38:45 58° 149° (SSE) 01:41:55 437.305
CUSAT 1 26 May 01:40:23 01:45:11 20° 277° (W) 01:49:02 437.405
ITUPSAT 1 26 May 01:50:05 01:54:51 81° 260° (W) 01:59:37 437.325
PHONESAT 2.4 26 May 01:51:18 01:53:47 19° 143° (SE) 01:56:20 2401.200-2431.200
Oscar 19 26 May 01:52:43 01:57:45 53° 100° (E) 02:02:45 437.125/150
O/OREOS (USA 219) 26 May 01:53:19 01:57:42 58° 69° (ENE) 02:02:07 437.305
BEESAT 26 May 01:58:35 02:03:17 63° 259° (W) 02:08:01 436.000
ITAMSAT 1 26 May 02:05:27 02:08:53 18° 93° (E) 02:12:31 435.822/435.867
SWISSCUBE 26 May 02:07:05 02:11:39 46° 261° (W) 02:16:12 437.505
KKS-1 26 May 02:20:47 02:24:48 34° 73° (ENE) 02:28:53 437.445
GONETS M04 26 May 02:33:03 02:39:09 20° 276° (W) 02:44:44
Gurwin Techsat 1B 26 May 02:35:38 02:40:29 36° 97° (E) 02:45:22 435.225
Cosmos 2499 26 May 02:42:33 02:49:38 87° 84° (E) 02:56:53 435.465 / 435.565
SO-50 26 May 02:47:40 02:52:02 45° 114° (ESE) 02:56:37 436.795
BEESAT 3 26 May 02:54:36 02:57:57 25° 54° (NE) 03:01:19 437.485
VERMONT LUNAR 26 May 03:13:12 03:16:04 29° 345° (NNW) 03:18:56 437.305
JAS-2 26 May 03:15:51 03:17:48 12° 91° (E) 03:20:09 435.910
AIST 2 26 May 03:26:03 03:28:00 13° 48° (NE) 03:30:07 435.215
STARS 26 May 03:27:13 03:31:37 63° 259° (W) 03:36:03 437.465
PHONESAT 2.4 26 May 03:28:13 03:31:41 68° 335° (NNW) 03:35:09 2401.200-2431.200
Oscar 19 26 May 03:33:41 03:36:42 15° 293° (WNW) 03:39:27 437.125/150
BEESAT 2 26 May 03:41:24 03:45:29 70° 61° (ENE) 03:49:30 435.950
MOZHAYETS 4 26 May 03:43:01 03:46:13 20° 71° (ENE) 03:49:35
ITAMSAT 1 26 May 03:43:40 03:48:36 43° 288° (WNW) 03:53:30 435.822/435.867
KKS-1 26 May 03:58:34 04:01:33 17° 267° (W) 04:04:23 437.445
AO-7 26 May 04:12:04 04:19:55 45° 100° (E) 04:27:51 29.400- 29.500
Gurwin Techsat 1B 26 May 04:16:07 04:20:17 23° 291° (WNW) 04:24:17 435.225
SO-50 26 May 04:29:33 04:32:52 18° 311° (NW) 04:36:06 436.795
BEESAT 3 26 May 04:32:41 04:35:50 21° 249° (WSW) 04:38:50 437.485
Cosmos 2499 26 May 04:40:11 04:42:02 11° 277° (W) 04:43:13 435.465 / 435.565
HORYU 2 26 May 04:45:01 04:49:21 56° 285° (WNW) 04:53:40 437.375
VERMONT LUNAR 26 May 04:51:24 04:53:50 20° 2° (N) 04:56:17 437.305
JAS-2 26 May 04:58:19 05:03:23 56° 286° (WNW) 05:08:38 435.910
AIST 2 26 May 05:02:51 05:06:56 50° 245° (WSW) 05:10:55 435.215
PHONESAT 2.4 26 May 05:07:15 05:10:10 24° 352° (N) 05:13:04 2401.200-2431.200
MOZHAYETS 4 26 May 05:19:10 05:23:16 31° 263° (W) 05:27:19
CUBESAT XI-V 26 May 05:19:29 05:22:12 16° 69° (ENE) 05:25:07 437.345
CUTE-I 26 May 05:50:39 05:53:30 15° 91° (E) 05:56:40 437.470
M-CUBED/EXP-1 PRIME 26 May 05:55:01 05:56:05 11° 66° (ENE) 05:57:24 437.505
AUBIESAT-1 26 May 06:03:39 06:05:09 12° 66° (ENE) 06:06:50 437.475
AO-7 26 May 06:05:08 06:12:34 36° 295° (WNW) 06:19:50 29.400- 29.500
Cubesat XI-IV 26 May 06:09:49 06:14:05 25° 95° (E) 06:18:29 437.490
STRAND 1 26 May 06:13:41 06:17:55 28° 71° (ENE) 06:22:16 437.568
Cosmos 2491 26 May 06:18:50 06:27:13 47° 77° (ENE) 06:35:37 435.465 / 435.565
VERMONT LUNAR 26 May 06:28:33 06:31:34 37° 19° (NNE) 06:34:33 437.305
ISS 26 May 06:40:54 06:44:00 40° 40° (NE) 06:47:06 145.825
PHONESAT 2.4 26 May 06:45:59 06:48:55 25° 9° (N) 06:51:51 2401.200-2431.200
CUBESAT XI-V 26 May 06:55:03 06:59:21 39° 262° (W) 07:03:39 437.345
YUBILEINY 26 May 07:04:49 07:13:02 48° 90° (E) 07:21:20 435.215
PRISM 26 May 07:04:53 07:08:55 63° 259° (WSW) 07:12:58 437.425
AIST 1 26 May 07:24:14 07:27:52 26° 77° (ENE) 07:31:35
M-CUBED/EXP-1 PRIME 26 May 07:26:22 07:30:41 53° 255° (WSW) 07:34:40 437.505
CUTE-I 26 May 07:28:44 07:33:58 54° 286° (WNW) 07:39:10 437.470
AUBIESAT-1 26 May 07:35:29 07:39:41 47° 256° (WSW) 07:43:35 437.475
Cubesat XI-IV 26 May 07:49:26 07:54:14 34° 289° (WNW) 07:58:59 437.490
STRAND 1 26 May 07:52:47 07:57:05 27° 264° (W) 08:01:19 437.568
VERMONT LUNAR 26 May 08:05:47 08:08:45 35° 212° (SSW) 08:11:42 437.305
RS-15 26 May 08:13:13 08:23:18 48° 110° (ESE) 08:33:41 29.354- 29.394
Cosmos 2491 26 May 08:16:17 08:23:50 31° 273° (W) 08:31:04 435.465 / 435.565
BRITE-PL 26 May 08:17:49 08:23:09 44° 97° (E) 08:28:15 437.365/2234.400
ISS 26 May 08:18:30 08:20:11 13° 232° (SW) 08:21:44 145.825
PHONESAT 2.4 26 May 08:23:55 08:27:23 73° 25° (NNE) 08:30:50 2401.200-2431.200
GOMX 1 26 May 08:25:02 08:29:41 31° 95° (E) 08:34:10 467.674
CANX-2 26 May 08:44:55 08:48:34 29° 96° (E) 08:52:17 2200.000
CUTE 1.7 + AOD 2 26 May 08:48:36 08:52:15 29° 96° (E) 08:55:56 437.475
Cosmos 2504 26 May 08:51:57 08:57:32 21° 86° (E) 09:03:18 435.465 / 435.565
AIST 1 26 May 09:02:08 09:05:23 20° 270° (W) 09:08:29
YUBILEINY 26 May 09:02:30 09:10:08 31° 287° (WNW) 09:17:31 435.215
SEEDS 26 May 09:12:11 09:16:12 46° 99° (E) 09:20:13 437.485
CINEMA 3 26 May 09:13:37 09:17:34 27° 95° (E) 09:21:25 145.822/145.860
UNISAT 6 26 May 09:23:38 09:25:31 13° 68° (ENE) 09:27:39 437.425
UWE-3 26 May 09:24:37 09:26:13 12° 90° (E) 09:28:04 435.000/436.395/437.385
HO-68 26 May 09:24:41 09:31:51 77° 104° (ESE) 09:39:00 435.675
COMPASS 1 26 May 09:26:38 09:30:42 56° 100° (E) 09:34:46 437.405
DOVE 4 26 May 09:29:15 09:34:22 85° 283° (WNW) 09:39:10 437.250
FUNcube-1 26 May 09:36:36 09:38:20 13° 91° (E) 09:40:18 145.935
AAUSAT CUBESAT 2 26 May 09:39:24 09:43:31 69° 101° (E) 09:47:38 437.432
